This is the latest recevied weather packets stored in our database for station/object N8TWM-13. If no packets are shown the sender has not sent any weather packets the latest 10 day(s).
| Time | Temp. | Humidity | Pressure | Rain* | Wind** | Luminosity | Snow |
|---|---|---|---|---|---|---|---|
| 1777499997 | 9.44° C | 93% | 1009.9 hPa | 0 mm | - | 65 W/m² | - |
| 1777499694 | 9.44° C | 93% | 1009.9 hPa | 0 mm | - | 62 W/m² | - |
| 1777499390 | 9.44° C | 93% | 1010 hPa | 0 mm | - | 80 W/m² | - |
| 1777499089 | 9.44° C | 93% | 1010 hPa | 0 mm | - | 54 W/m² | - |
| 1777498785 | 9.44° C | 93% | 1009.9 hPa | 0 mm | - | 73 W/m² | - |
| 1777498482 | 9.44° C | 93% | 1009.9 hPa | 0 mm | - | 106 W/m² | - |
| 1777498178 | 9.44° C | 93% | 1010 hPa | 0 mm | - | 65 W/m² | - |
| 1777497876 | 9.44° C | 93% | 1009.8 hPa | 0 mm | - | 70 W/m² | - |
| 1777497571 | 9.44° C | 92% | 1009.8 hPa | 0 mm | - | 67 W/m² | - |
| 1777497268 | 10° C | 92% | 1009.7 hPa | 0 mm | - | 72 W/m² | - |
| 1777496965 | 10° C | 92% | 1009.7 hPa | 0 mm | - | 67 W/m² | - |
| 1777496662 | 10° C | 92% | 1010 hPa | 0 mm | - | 60 W/m² | - |
| 1777496358 | 10° C | 92% | 1010.1 hPa | 0 mm | - | 48 W/m² | - |
| 1777496054 | 10° C | 92% | 1010 hPa | 0 mm | - | 80 W/m² | - |
| 1777495750 | 10° C | 93% | 1010.1 hPa | 0 mm | - | 67 W/m² | - |
| 1777495447 | 10° C | 93% | 1009.8 hPa | 0 mm | - | 81 W/m² | - |
| 1777495143 | 10° C | 93% | 1009.8 hPa | 0 mm | - | 61 W/m² | - |
| 1777494840 | 10° C | 93% | 1009.6 hPa | 0 mm | - | 89 W/m² | - |
| 1777494537 | 10° C | 93% | 1009.6 hPa | 0 mm | - | 51 W/m² | - |
| 1777494235 | 10° C | 93% | 1009.9 hPa | 0 mm | - | 76 W/m² | - |
| 1777493931 | 10° C | 93% | 1009.6 hPa | 0 mm | - | 82 W/m² | - |
| 1777493630 | 10.56° C | 93% | 1009.5 hPa | 0 mm | - | 107 W/m² | - |
| 1777493327 | 10° C | 93% | 1009.6 hPa | 0 mm | - | 143 W/m² | - |
| 1777493023 | 10° C | 93% | 1009.9 hPa | 0 mm | - | 103 W/m² | - |
| 1777492720 | 10° C | 93% | 1009.7 hPa | 0 mm | - | 69 W/m² | - |
* Rain latest hour (hover to see other rain measurements)
** Current wind speed in m/s (hover to see current wind gust speed)